Wind_Speed
16 17 17 17 18 19 19 17 15 14 13 12 12 12 13 12 12 13 13 14 14 14 15 15 15 14 13 13 12 11 10 10 9 10 13 17 22 25 26 24 22 21 20
17 17 18 19 19 19 17 15 15 15 15 15 14 15 15 15 15 16 16 17 17 16 17 17 17 15 14 14 14 12 11 11 10 10 12 16 19 23 26 27 26 24 23
19 19 19 19 18 17 16 16 16 17 17 18 18 18 18 18 19 19 19 19 19 19 19 20 19 17 15 16 16 14 12 11 10 10 11 14 17 20 23 27 28 27 26
20 19 18 17 17 18 18 18 18 19 20 20 20 20 21 21 22 22 22 21 21 22 23 22 21 19 16 15 16 15 14 12 12 11 11 13 14 17 21 24 26 27 28
18 17 17 17 18 19 20 20 20 21 22 22 22 22 23 24 25 25 25 24 24 25 25 24 21 19 17 15 15 15 15 14 14 14 13 12 12 12 16 20 23 26 28
18 18 19 19 21 22 24 24 23 24 24 24 24 24 25 26 27 27 26 26 27 27 25 23 20 18 16 15 15 14 15 15 15 17 16 13 11 10 11 15 20 22 25
21 22 23 23 23 24 26 26 26 26 26 26 26 26 27 27 28 28 27 27 26 26 24 23 21 19 17 17 16 15 15 16 16 17 18 17 13 11 9 11 16 20 23
24 25 26 26 26 26 27 28 28 28 28 27 27 28 28 28 28 28 27 27 26 24 22 22 21 20 19 19 19 17 16 17 17 17 18 19 18 15 13 11 13 16 20
25 26 27 28 28 28 27 27 28 29 29 29 28 28 28 28 27 26 26 25 24 23 23 22 22 22 21 21 21 20 19 19 19 19 19 19 20 19 17 15 14 15 17
28 29 29 29 29 29 28 27 28 28 28 27 27 27 27 26 26 25 25 25 25 25 25 25 25 25 24 23 23 23 22 22 22 22 22 21 21 21 21 20 19 18 17
29 29 28 27 28 28 27 27 26 26 26 26 26 25 25 25 25 26 27 28 28 29 29 29 29 29 29 27 27 27 26 26 25 24 25 24 23 23 24 23 23 22 20
26 24 23 24 24 25 26 26 25 25 25 26 27 27 28 29 30 31 32 33 33 33 34 34 33 33 33 33 32 30 30 30 29 28 28 29 27 26 26 26 26 25 24
25 23 22 22 23 25 28 29 29 29 31 32 33 33 34 35 36 36 37 38 38 38 38 38 38 38 38 38 38 35 33 32 32 32 31 31 30 29 28 28 29 29 28
27 27 28 28 28 30 32 34 36 37 38 39 40 41 41 42 43 43 43 43 43 43 43 43 43 43 42 42 42 41 38 35 35 34 34 33 32 31 30 29 30 31 31
30 31 33 34 35 36 37 39 41 43 44 46 47 48 48 49 49 49 48 47 46 46 46 46 46 46 46 45 45 45 43 40 37 36 36 35 34 34 33 31 31 32 34
32 33 34 35 36 37 38 40 42 44 46 48 49 51 52 53 53 52 52 51 49 48 48 48 48 48 48 47 47 47 46 43 41 39 39 39 39 38 38 36 34 34 35
34 36 37 38 39 41 41 42 43 45 46 47 48 49 51 52 53 54 53 52 51 50 49 49 49 49 49 48 48 47 46 44 42 41 40 40 41 41 42 42 40 38 37
39 41 43 44 45 46 47 47 48 50 51 52 51 51 50 50 51 52 53 53 53 52 51 50 49 49 49 48 48 48 47 47 45 43 41 41 41 42 43 44 44 44 42
45 47 48 50 51 52 53 54 54 54 54 53 53 52 51 50 49 49 50 52 53 53 52 51 49 48 48 48 48 48 48 47 46 45 43 43 44 44 45 45 46 46 46
50 51 53 54 55 56 56 57 58 57 56 53 51 51 50 49 48 48 48 49 49 50 49 48 47 46 46 45 45 46 45 45 45 45 44 45 46 46 47 47 48 48 48
53 55 58 60 60 60 59 58 58 56 53 51 50 50 49 49 48 47 47 47 47 47 46 45 44 43 43 43 45 46 46 47 48 48 49 49 49 49 49 49 50 50 51
58 59 60 62 63 62 60 59 57 54 51 50 50 51 50 49 47 45 44 43 43 43 43 42 42 42 44 46 48 49 50 51 52 53 54 55 56 56 55 55 54 55 55
60 60 61 63 62 61 58 57 56 54 52 52 52 52 51 49 45 43 43 41 41 41 40 40 41 44 46 48 50 52 54 55 56 58 60 62 63 63 63 62 60 58 59
62 62 62 63 62 61 58 55 55 54 53 53 52 50 49 48 46 44 42 41 41 41 40 41 42 44 47 49 51 54 58 61 63 64 64 65 67 68 68 69 67 64 61
61 60 61 62 62 60 58 56 54 51 50 49 47 46 46 46 45 44 42 42 40 39 41 42 44 45 48 51 54 57 59 60 60 60 58 58 61 66 69 70 71 69 65
58 58 59 60 60 60 58 56 52 49 48 46 44 44 45 45 43 42 42 41 40 39 40 41 43 46 50 53 54 52 49 47 45 44 44 47 53 59 65 69 72 72 70
Wind_Direction
292 295 297 297 296 296 294 289 287 288 289 287 286 290 294 296 299 302 303 304 309 315 318 317 315 306 302 302 301 301 296 293 295 282 262 247 238 234 232 233 238 241 243
293 295 296 296 296 294 291 285 281 282 282 279 279 284 287 288 293 298 299 300 304 310 314 315 314 310 304 298 293 293 290 287 284 281 268 253 245 241 237 233 234 239 246
291 294 295 294 291 289 286 282 279 276 274 275 277 281 283 285 291 295 296 297 299 303 308 311 309 308 305 300 294 289 286 281 280 283 273 259 250 247 244 238 235 238 244
289 290 289 286 283 282 281 279 276 274 274 275 276 278 281 284 288 292 293 294 298 303 307 308 304 301 300 299 296 289 286 281 272 280 282 272 262 252 246 240 238 239 243
283 283 282 281 281 280 278 275 274 274 276 277 278 279 281 283 286 290 292 294 298 301 304 304 301 297 296 295 294 290 285 281 273 270 275 280 279 268 253 243 241 243 244
282 281 281 282 282 281 279 277 275 274 276 278 279 281 283 284 286 288 291 293 295 296 297 297 297 296 295 296 294 290 283 279 276 268 265 270 281 285 268 250 243 242 246
285 284 282 280 280 280 280 278 277 276 277 278 280 281 283 284 285 286 287 289 290 291 291 290 292 292 293 294 293 291 285 278 275 271 265 263 268 273 276 267 252 247 246
287 287 286 283 281 280 279 278 277 277 277 278 279 280 282 282 283 284 285 286 285 285 285 286 288 290 292 292 290 288 284 278 272 269 265 262 261 264 267 271 269 259 253
286 286 285 284 284 282 279 278 277 277 278 279 279 279 280 280 280 281 282 281 280 280 281 282 283 285 287 289 290 288 283 279 274 269 264 260 256 258 262 263 266 268 265
287 286 285 285 284 283 281 279 278 279 280 280 279 278 278 278 278 278 278 278 279 280 282 283 283 283 283 284 284 284 283 279 276 274 270 265 259 255 255 257 258 260 264
288 287 286 285 284 282 281 281 279 278 277 277 277 276 275 276 277 278 278 279 280 281 281 282 283 285 285 284 281 279 278 276 274 272 272 269 264 257 252 251 253 255 256
289 287 285 283 282 282 282 281 278 274 272 273 274 274 273 274 274 276 277 278 278 279 279 280 280 282 283 282 280 278 276 275 273 270 270 270 267 263 257 251 249 252 253
292 290 286 282 281 281 282 282 281 278 276 276 275 275 274 274 273 273 274 275 277 277 278 278 278 278 278 279 279 277 275 273 271 270 269 269 269 266 263 259 253 250 250
287 286 285 282 280 279 279 281 282 281 280 279 278 278 277 276 276 275 274 274 274 274 275 275 275 275 275 276 277 276 272 268 266 266 267 267 267 268 266 264 261 256 251
285 284 284 283 282 281 281 280 280 281 281 281 281 280 279 278 276 275 274 273 272 271 271 271 271 272 272 273 274 273 271 267 263 261 261 262 264 265 265 264 262 261 258
287 286 285 284 284 284 284 283 283 282 281 280 279 279 278 278 276 275 274 272 271 269 269 269 269 270 270 270 270 270 269 268 265 261 259 259 261 262 263 263 261 258 258
289 288 286 286 286 286 285 283 282 282 281 280 279 277 277 276 275 274 273 271 270 269 268 267 267 267 267 268 268 268 267 266 266 266 264 264 263 264 264 264 262 259 256
290 290 290 290 290 291 290 289 289 288 286 283 280 277 275 274 273 273 272 271 270 268 267 265 265 265 265 265 265 265 265 265 266 266 266 265 265 265 265 264 263 260 257
289 289 289 289 289 290 290 290 289 289 288 286 283 281 279 276 272 270 269 268 268 267 266 266 265 265 264 264 264 265 267 267 267 267 266 265 264 263 262 261 261 259 257
288 287 288 288 288 289 289 289 288 288 287 284 282 281 280 277 273 269 267 265 265 265 265 265 265 264 263 263 264 264 266 268 268 268 267 266 265 263 262 260 259 257 256
289 289 288 288 289 289 289 288 287 285 284 282 280 280 278 274 270 267 265 263 262 261 261 261 261 261 261 262 262 263 264 265 267 269 269 269 268 265 263 261 260 258 256
290 289 289 288 289 288 288 286 285 282 279 278 277 277 276 270 266 263 261 261 260 259 257 257 259 261 263 264 265 265 265 266 267 268 270 270 270 269 266 263 260 259 257
291 289 290 290 289 288 286 283 281 280 279 277 276 274 271 266 262 259 258 259 259 257 257 258 260 262 264 265 266 267 267 267 266 267 268 268 268 268 267 266 263 260 258
292 291 291 290 288 286 282 279 278 279 279 278 276 272 266 262 260 259 259 259 259 259 261 262 264 266 268 269 270 271 272 271 270 268 267 268 268 267 267 267 266 263 259
295 292 290 288 285 283 280 278 277 278 279 280 278 273 267 262 258 257 257 257 258 261 263 266 268 271 273 275 276 276 277 276 275 274 272 271 270 268 267 265 263 262 259
295 290 287 284 283 281 279 278 278 278 278 281 279 273 272 269 263 257 255 255 257 261 265 268 272 275 278 279 279 279 278 276 275 275 277 278 277 274 269 264 261 257 255
Height
5850 5850 5849 5849 5848 5847 5847 5846 5846 5846 5846 5846 5846 5846 5846 5845 5845 5844 5843 5842 5842 5842 5841 5841 5840 5840 5840 5839 5839 5839 5839 5839 5838 5838 5838 5839 5840 5842 5844 5846 5849 5851 5852
5848 5847 5847 5846 5845 5845 5844 5844 5844 5844 5844 5844 5844 5843 5843 5843 5842 5842 5841 5840 5839 5839 5839 5839 5838 5838 5837 5837 5836 5836 5836 5836 5835 5835 5835 5836 5837 5838 5840 5842 5844 5846 5848
5845 5844 5843 5843 5842 5842 5842 5841 5841 5841 5841 5841 5841 5840 5840 5840 5840 5839 5839 5838 5837 5837 5837 5836 5835 5834 5834 5834 5833 5833 5833 5832 5833 5833 5832 5832 5833 5834 5836 5838 5839 5841 5844
5841 5840 5840 5840 5839 5839 5839 5839 5838 5838 5838 5838 5837 5837 5836 5836 5836 5836 5835 5835 5834 5833 5832 5832 5831 5831 5830 5830 5830 5830 5830 5829 5829 5830 5829 5829 5830 5830 5831 5833 5835 5837 5839
5838 5837 5837 5837 5836 5836 5836 5835 5835 5835 5834 5834 5834 5833 5833 5833 5833 5832 5832 5831 5830 5829 5828 5827 5827 5827 5827 5826 5826 5826 5826 5827 5826 5826 5826 5826 5827 5827 5827 5828 5830 5832 5834
5835 5834 5833 5833 5833 5832 5832 5832 5831 5831 5830 5830 5829 5829 5829 5829 5828 5828 5827 5827 5826 5825 5825 5824 5823 5823 5823 5823 5823 5823 5823 5823 5823 5823 5823 5823 5824 5824 5824 5824 5826 5827 5829
5831 5830 5830 5829 5829 5828 5827 5827 5826 5826 5825 5825 5825 5824 5824 5824 5823 5823 5823 5822 5822 5821 5821 5821 5820 5819 5819 5819 5819 5819 5819 5819 5819 5820 5820 5820 5821 5821 5821 5821 5822 5823 5825
5827 5826 5824 5824 5824 5823 5823 5822 5821 5821 5820 5820 5820 5819 5819 5819 5818 5818 5818 5817 5817 5817 5816 5816 5815 5815 5815 5815 5815 5815 5815 5815 5814 5815 5815 5816 5817 5817 5818 5818 5819 5820 5821
5823 5821 5820 5818 5818 5817 5817 5817 5816 5816 5815 5815 5814 5814 5814 5813 5813 5813 5813 5813 5812 5812 5811 5811 5810 5810 5810 5810 5810 5810 5810 5810 5810 5810 5810 5811 5812 5813 5813 5814 5815 5816 5817
5818 5816 5814 5813 5812 5811 5811 5811 5810 5810 5809 5809 5809 5808 5808 5808 5808 5808 5808 5808 5807 5807 5806 5806 5805 5804 5804 5805 5805 5805 5805 5805 5805 5805 5805 5806 5807 5808 5809 5810 5811 5812 5813
5811 5809 5808 5807 5806 5804 5804 5804 5804 5804 5803 5803 5803 5803 5802 5802 5802 5802 5802 5802 5802 5801 5801 5800 5800 5799 5798 5798 5798 5798 5799 5799 5800 5800 5800 5800 5801 5802 5803 5805 5805 5807 5808
5804 5803 5802 5801 5799 5798 5797 5797 5798 5798 5797 5797 5796 5796 5796 5796 5796 5795 5795 5794 5794 5794 5794 5793 5793 5792 5792 5791 5791 5792 5793 5793 5794 5793 5793 5794 5795 5796 5797 5798 5799 5801 5803
5798 5798 5797 5796 5794 5793 5792 5791 5790 5790 5790 5789 5789 5789 5788 5788 5787 5787 5787 5786 5785 5785 5785 5785 5784 5784 5784 5783 5783 5784 5785 5786 5787 5787 5787 5787 5788 5789 5791 5792 5793 5794 5796
5793 5792 5790 5789 5788 5787 5785 5783 5782 5781 5781 5780 5780 5780 5779 5778 5778 5777 5777 5776 5776 5775 5775 5775 5775 5775 5775 5775 5774 5775 5776 5777 5779 5780 5780 5781 5781 5782 5784 5786 5787 5788 5789
5786 5784 5782 5781 5779 5778 5777 5775 5774 5772 5771 5770 5769 5768 5768 5767 5767 5766 5765 5765 5765 5764 5764 5764 5764 5764 5765 5765 5765 5765 5766 5767 5769 5770 5771 5772 5774 5774 5776 5778 5780 5782 5783
5778 5776 5774 5772 5771 5769 5767 5766 5764 5762 5761 5759 5758 5756 5755 5755 5754 5754 5753 5752 5752 5753 5753 5753 5753 5753 5753 5754 5754 5755 5756 5756 5758 5759 5761 5763 5764 5766 5767 5769 5771 5774 5776
5771 5768 5766 5764 5762 5760 5758 5756 5754 5752 5750 5748 5747 5745 5743 5742 5741 5740 5740 5739 5739 5740 5740 5741 5741 5741 5742 5743 5743 5744 5745 5746 5748 5749 5751 5752 5754 5756 5758 5760 5762 5764 5766
5762 5760 5757 5754 5751 5749 5746 5744 5741 5739 5738 5736 5735 5733 5731 5729 5728 5727 5727 5726 5727 5727 5728 5728 5728 5729 5730 5731 5732 5733 5734 5736 5737 5739 5740 5742 5744 5745 5747 5749 5751 5753 5756
5753 5750 5747 5744 5741 5738 5734 5731 5728 5726 5724 5722 5721 5719 5718 5716 5715 5714 5714 5713 5713 5714 5715 5716 5716 5717 5719 5720 5722 5722 5723 5724 5726 5727 5729 5730 5732 5733 5735 5737 5739 5742 5745
5742 5739 5735 5731 5728 5725 5722 5718 5714 5711 5709 5708 5706 5705 5704 5702 5702 5701 5701 5700 5700 5701 5702 5703 5704 5705 5707 5709 5711 5712 5712 5713 5713 5715 5716 5718 5720 5721 5722 5724 5726 5729 5732
5729 5726 5722 5717 5714 5711 5708 5704 5700 5697 5695 5694 5693 5691 5690 5689 5688 5688 5687 5688 5688 5688 5689 5690 5692 5693 5695 5697 5699 5700 5700 5700 5701 5701 5703 5705 5707 5709 5711 5712 5713 5716 5719
5715 5711 5707 5703 5699 5696 5693 5689 5686 5684 5682 5681 5680 5679 5678 5676 5675 5675 5675 5675 5676 5677 5678 5679 5680 5681 5683 5685 5686 5687 5688 5689 5689 5689 5689 5689 5690 5693 5696 5699 5701 5702 5705
5699 5695 5691 5687 5684 5681 5678 5675 5672 5670 5669 5668 5667 5665 5664 5663 5663 5663 5663 5663 5664 5665 5667 5668 5669 5670 5671 5672 5673 5675 5675 5676 5677 5676 5675 5674 5674 5676 5678 5681 5684 5687 5689
5685 5680 5676 5672 5669 5665 5663 5660 5658 5656 5655 5653 5652 5651 5650 5650 5650 5650 5651 5651 5652 5654 5655 5656 5657 5658 5658 5658 5658 5658 5659 5659 5660 5661 5661 5659 5659 5660 5660 5662 5665 5669 5673
5670 5665 5661 5656 5653 5650 5647 5646 5644 5643 5641 5639 5637 5636 5636 5635 5636 5637 5639 5640 5641 5642 5643 5644 5644 5644 5644 5643 5643 5642 5640 5640 5640 5641 5642 5642 5642 5641 5641 5643 5646 5649 5653
5654 5649 5644 5640 5637 5635 5632 5631 5630 5629 5628 5626 5625 5624 5623 5623 5623 5625 5627 5628 5629 5630 5631 5631 5631 5630 5629 5628 5626 5625 5624 5623 5622 5622 5622 5622 5622 5622 5620 5621 5623 5627 5631